Main page
Satellite images Climate Cyclones Lightning AirportsFAQ Languages Contact Newsletter About
Weather : Europe Africa North America South America Asia Australia-Oceania Others

5355, Surat Thani, Surat Thani Airport

48551

latitude: , longitude: Thailand, elevation: 09-07N m


METAR: VTSB 211500Z 00000KT 7000 SCT020 BKN100 25/24 Q1009